FW9558 Weather Reports


Display with metric or nautical units.
time (UTC)temp
F
wind
direction
speed
MPH
gust
MPH
rain 1hr
in
rain 24hr
in
rain mn
in
humidity
%
barometer
mb
20260508234538 60 0 1.0 4.0 0.00 0.00 0.00 79 1012.4
20260508233039 60 60 1.0 5.0 0.00 0.00 0.00 79 1012.3
20260508231537 60 67 0.0 4.0 0.00 0.00 0.00 79 1012.5
20260508230036 61 0 1.0 4.0 0.00 0.00 0.00 79 1012.6
20260508224548 61 63 1.0 3.0 0.00 0.00 0.00 79 1012.5
20260508223035 61 0 0.0 0.0 0.00 0.00 0.00 79 1012.5
20260508221539 61 0 0.0 2.0 0.00 0.00 0.00 79 1012.6
20260508220047 61 70 0.0 0.0 0.00 0.00 0.00 78 1012.7
20260508214543 61 0 0.0 2.0 0.00 0.00 0.00 78 1012.5
20260508213041 61 70 0.0 2.0 0.00 0.00 0.00 77 1012.7
20260508211538 62 0 0.0 0.0 0.00 0.00 0.00 76 1012.8
20260508210039 62 0 0.0 0.0 0.00 0.00 0.00 74 1012.7
20260508204539 63 0 0.0 0.0 0.00 0.00 0.00 73 1012.6
20260508203040 63 0 0.0 0.0 0.00 0.00 0.00 71 1012.5
20260508201536 64 0 0.0 2.0 0.00 0.00 0.00 70 1012.5
20260508200036 65 0 0.0 0.0 0.00 0.00 0.00 68 1012.4
20260508194538 66 0 0.0 2.0 0.00 0.00 0.00 67 1012.2
20260508193039 67 0 0.0 0.0 0.00 0.00 0.00 65 1012.0
20260508191545 67 0 0.0 0.0 0.00 0.00 0.00 64 1011.9
20260508190044 68 0 0.0 0.0 0.00 0.00 0.00 63 1011.9
20260508184539 70 0 0.0 2.0 0.00 0.00 0.00 60 1011.7
20260508183043 70 0 1.0 4.0 0.00 0.00 0.00 58 1011.5
20260508181546 71 0 0.0 1.0 0.00 0.00 0.00 58 1011.6
20260508180038 71 0 0.0 0.0 0.00 0.00 0.00 57 1011.4
20260508174541 71 100 1.0 2.0 0.00 0.00 0.00 54 1011.5
20260508173037 72 85 1.0 6.0 0.00 0.00 0.00 51 1011.4
20260508171541 72 76 1.0 4.0 0.00 0.00 0.00 52 1011.6
20260508170036 72 115 0.0 3.0 0.00 0.00 0.00 49 1011.5
20260508164536 73 77 0.0 4.0 0.00 0.00 0.00 51 1011.5
20260508163053 73 92 1.0 4.0 0.00 0.00 0.00 49 1011.4
20260508161550 74 133 2.0 5.0 0.00 0.00 0.00 48 1011.4
20260508160036 74 67 0.0 5.0 0.00 0.00 0.00 47 1011.4
20260508154541 73 86 1.0 5.0 0.00 0.00 0.00 50 1011.4
20260508153054 73 98 2.0 4.0 0.00 0.00 0.00 50 1011.4
20260508151539 73 0 0.0 6.0 0.00 0.00 0.00 50 1011.4
20260508150039 75 136 1.0 4.0 0.00 0.00 0.00 48 1011.5
20260508144537 74 76 1.0 5.0 0.00 0.00 0.00 51 1011.5
20260508143056 74 47 3.0 8.0 0.00 0.00 0.00 49 1011.7
20260508141544 74 166 3.0 7.0 0.00 0.00 0.00 51 1011.8
20260508140041 74 132 1.0 7.0 0.00 0.00 0.00 50 1011.9
20260508134540 74 77 1.0 8.0 0.00 0.00 0.00 50 1011.9
20260508133038 73 150 1.0 7.0 0.00 0.00 0.00 50 1012.1
20260508131537 72 133 2.0 8.0 0.00 0.00 0.00 53 1012.2
20260508130035 72 148 1.0 5.0 0.00 0.00 0.00 51 1012.0
20260508124539 73 165 2.0 7.0 0.00 0.00 0.00 49 1012.2
20260508123042 72 87 1.0 7.0 0.00 0.00 0.00 57 1012.2
20260508121538 72 103 1.0 7.0 0.00 0.00 0.00 54 1012.4
20260508120036 72 49 2.0 10.0 0.00 0.00 0.00 55 1012.5
20260508114541 72 112 2.0 6.0 0.00 0.00 0.00 55 1012.3
20260508113040 71 87 1.0 8.0 0.00 0.00 0.00 58 1012.4
20260508111541 71 120 2.0 6.0 0.00 0.00 0.00 58 1012.5
20260508110038 70 72 1.0 7.0 0.00 0.00 0.00 60 1012.4
20260508104534 70 86 2.0 10.0 0.00 0.00 0.00 61 1012.5
20260508103044 69 85 3.0 8.0 0.00 0.00 0.00 62 1012.6
20260508101536 69 52 2.0 7.0 0.00 0.00 0.00 61 1012.7
20260508100056 68 49 3.0 8.0 0.00 0.00 0.00 65 1012.7
20260508094542 68 98 2.0 8.0 0.00 0.00 0.00 65 1012.6
20260508093039 67 93 2.0 6.0 0.00 0.00 0.00 68 1012.8
20260508091544 66 18 1.0 6.0 0.00 0.00 0.00 70 1012.9
20260508090041 65 109 2.0 5.0 0.00 0.00 0.00 71 1013.0
20260508084539 64 55 2.0 6.0 0.00 0.00 0.00 75 1013.0
20260508083039 62 57 2.0 6.0 0.00 0.00 0.00 77 1013.1
20260508081553 60 76 1.0 6.0 0.00 0.00 0.00 81 1012.9
20260508080040 59 69 2.0 7.0 0.00 0.00 0.00 81 1012.9
20260508074537 58 80 1.0 7.0 0.00 0.00 0.00 82 1013.1
20260508073043 56 57 2.0 6.0 0.00 0.00 0.00 82 1013.1
20260508071542 56 0 1.0 7.0 0.00 0.00 0.00 84 1013.0
20260508070041 55 55 1.0 6.0 0.00 0.00 0.00 84 1013.0
20260508064540 54 66 1.0 6.0 0.00 0.00 0.00 84 1013.0
20260508063037 53 49 1.0 3.0 0.00 0.00 0.00 87 1012.8
20260508061536 52 81 2.0 5.0 0.00 0.00 0.00 89 1012.8
20260508060053 50 68 1.0 3.0 0.00 0.00 0.00 90 1012.9
20260508054611 49 79 1.0 3.0 0.00 0.00 0.00 90 1012.5
20260508053048 49 63 1.0 3.0 0.00 0.00 0.00 91 1012.5
20260508051541 49 0 0.0 2.0 0.00 0.00 0.00 90 1012.5
20260508050043 48 67 1.0 4.0 0.00 0.00 0.00 90 1012.4
20260508044540 49 62 1.0 3.0 0.00 0.00 0.00 90 1012.4
20260508043039 49 0 0.0 2.0 0.00 0.00 0.00 90 1012.4
20260508041537 49 0 0.0 4.0 0.00 0.00 0.00 90 1012.4
20260508040037 49 78 0.0 3.0 0.00 0.00 0.00 90 1012.5
20260508034543 49 0 0.0 5.0 0.00 0.00 0.00 90 1012.5
20260508033040 49 0 0.0 3.0 0.00 0.00 0.00 90 1012.5
20260508031539 49 63 0.0 3.0 0.00 0.00 0.00 89 1012.6
20260508030040 50 0 0.0 2.0 0.00 0.00 0.00 89 1012.6
20260508024542 50 0 0.0 3.0 0.00 0.00 0.00 88 1012.7
20260508023041 50 0 0.0 3.0 0.00 0.00 0.00 88 1012.7
20260508021540 50 63 0.0 2.0 0.00 0.00 0.00 88 1012.6
20260508020038 51 0 0.0 0.0 0.00 0.00 0.00 87 1012.7
20260508014540 51 0 0.0 0.0 0.00 0.00 0.00 87 1013.0
20260508013042 51 0 0.0 0.0 0.00 0.00 0.00 86 1013.0
20260508011542 52 0 0.0 0.0 0.00 0.00 0.00 86 1013.0
20260508010048 52 0 0.0 0.0 0.00 0.00 0.00 85 1012.9
20260508004538 52 0 0.0 0.0 0.00 0.00 0.00 85 1012.9
20260508003036 52 0 0.0 0.0 0.00 0.00 0.00 84 1013.0
20260508001536 53 0 0.0 0.0 0.00 0.00 0.00 83 1012.9
20260508000041 53 0 0.0 0.0 0.00 0.00 0.00 83 1013.1